Location: Unspecified
(0.0000°N, 0.0000°E)
Time: 19:45:20
(UTC+00:00)

FENGYUN 1C DEB - Pass Details

Date: 21 February 2026
Orbit: 775 x 802 km, 98.9° (Epoch: 9 April)

Event Time Altitude Azimuth Distance (km) Brightness Sun altitude
Rises 03:43:14 0° 149° (SSE) 3,205 ? -36.9°
Reaches altitude 10° 03:45:45 10° 138° (SE) 2,282 ? -36.2°
Enters shadow 03:49:59 31° 81° (E) 1,314 ? -35.2°
